Regional Weather Roundup
Issued by NWS Little Rock, AR

Home | Current Version | Previous Version | Text Only | Print | Product List | Glossary On
Versions: 1 2 3 4 5 6 7 8 9 10 11 12 13 14 15 16 17 18 19 20 21 22 23 24 25 26 27 28 29 30 31 32 33 34 35 36 37 38 39 40 41 42 43 44 45 46 47 48 49 50
166
ASUS44 KLZK 260612
RWRLZK

WEATHER ROUNDUP FOR ARKANSAS
NATIONAL WEATHER SERVICE LITTLE ROCK AR
100 AM CDT TUE SEP 26 2017

NOTE: "FAIR" INDICATES FEW OR NO CLOUDS BELOW 12,000 FEET WITH NO
SIGNIFICANT WEATHER AND/OR OBSTRUCTIONS TO VISIBILITY.

ARZ001-003-010-029-260700-
NORTHWEST ARKANSAS

CITY           SKY/WX    TMP DP  RH WIND       PRES   REMARKS
FAYETTEVILLE   PTCLDY    64  64 100 CALM      29.96S
6HR MIN TEMP:  63; 6HR MAX TEMP:  79;

FORT SMITH     CLEAR     73  64  73 CALM      29.92R
6HR MIN TEMP:  73; 6HR MAX TEMP:  86;

HARRISON       CLEAR     68  63  84 SE6       29.98S
6HR MIN TEMP:  68; 6HR MAX TEMP:  80;

BENTONVILLE    PTCLDY    70  63  78 SE6       29.97S
6HR MIN TEMP:  70; 6HR MAX TEMP:  79;

ROGERS         CLEAR     70  64  81 SE7       29.96S
6HR MIN TEMP:  70; 6HR MAX TEMP:  79;

SILOAM SPGS    PTCLDY    71  63  75 SE6       29.95S
6HR MIN TEMP:  71; 6HR MAX TEMP:  79;

HIGHFILL       CLOUDY    69  64  84 S3        29.95F
6HR MIN TEMP:  69; 6HR MAX TEMP:  79;

$$

ARZ004-005-016-260700-
NORTH CENTRAL ARKANSAS

CITY           SKY/WX    TMP DP  RH WIND       PRES   REMARKS
BATESVILLE     CLEAR     69  66  90 CALM      29.95S
6HR MIN TEMP:  68; 6HR MAX TEMP:  82;

FLIPPIN        CLEAR     68  63  84 CALM      29.96S
6HR MIN TEMP:  68; 6HR MAX TEMP:  83;

MTN HOME       CLEAR     71  64  78 CALM      29.95S
6HR MIN TEMP:  69; 6HR MAX TEMP:  81;

$$

ARZ040-041-260700-
WEST CENTRAL ARKANSAS

CITY           SKY/WX    TMP DP  RH WIND       PRES   REMARKS
MENA           CLEAR     68  66  94 CALM      29.96S
MOUNT IDA      CLEAR     67  64  90 CALM      29.92F
6HR MIN TEMP:  67; 6HR MAX TEMP:  80;

$$

ARZ009-017-025-026-028-260700-
NORTHEAST ARKANSAS

CITY           SKY/WX    TMP DP  RH WIND       PRES   REMARKS
CORNING        FAIR      70  68  94 CALM      29.95S
JONESBORO      CLEAR     68  67  96 CALM      29.94S
6HR MIN TEMP:  67; 6HR MAX TEMP:  83;

NEWPORT        CLEAR     68  66  93 CALM      29.94S FOG
6HR MIN TEMP:  68; 6HR MAX TEMP:  82;

WALNUT RIDGE   CLEAR     69  64  84 CALM      29.94F
6HR MIN TEMP:  69; 6HR MAX TEMP:  81;

BLYTHEVILLE    CLEAR     70  68  93 CALM      29.95S
6HR MIN TEMP:  70; 6HR MAX TEMP:  83;

$$

ARZ022-023-033-042-044-260700-
CENTRAL ARKANSAS

CITY           SKY/WX    TMP DP  RH WIND       PRES   REMARKS
LITTLE ROCK    CLEAR     70  68  93 CALM      29.93F
6HR MIN TEMP:  70; 6HR MAX TEMP:  82;

N LITTLE ROCK    N/A     72  65  78 CALM      29.93F
6HR MIN TEMP:  72; 6HR MAX TEMP:  83;

JACKSONVILLE   CLEAR     68  65  89 CALM      29.93S
6HR MIN TEMP:  68; 6HR MAX TEMP:  83;

SEARCY         CLEAR     68  68 100 W3        29.95F
6HR MIN TEMP:  68; 6HR MAX TEMP:  82;

HOT SPRINGS    CLEAR     71  66  84 CALM      29.93F
6HR MIN TEMP:  70; 6HR MAX TEMP:  85;

RUSSELLVILLE   CLEAR     68  66  93 CALM      29.92F
6HR MIN TEMP:  67; 6HR MAX TEMP:  82;

CLINTON        FAIR      64  64 100 CALM      29.95F FOG
$$

ARZ036-260700-
EAST ARKANSAS

CITY           SKY/WX    TMP DP  RH WIND       PRES   REMARKS
WEST MEMPHIS   CLEAR     70  68  93 CALM      29.93S FOG
6HR MIN TEMP:  69; 6HR MAX TEMP:  82;

$$

ARZ050-053-066-070-073-260700-
SOUTHWEST ARKANSAS

CITY           SKY/WX    TMP DP  RH WIND       PRES   REMARKS
ARKADELPHIA    FAIR      66  66 100 CALM      29.93S
6HR MIN TEMP:  66; 6HR MAX TEMP:  80;

CAMDEN         CLEAR     66  64  94 CALM      29.91S FOG
TEXARKANA      CLEAR     71  67  87 E3        29.91F
6HR MIN TEMP:  70; 6HR MAX TEMP:  82;

DE QUEEN       CLEAR     67  67 100 CALM      29.90S
6HR MIN TEMP:  66; 6HR MAX TEMP:  84;

$$

ARZ056-057-069-260700-
SOUTHEAST ARKANSAS

CITY           SKY/WX    TMP DP  RH WIND       PRES   REMARKS
PINE BLUFF     CLEAR     68  63  84 CALM      29.93S
6HR MIN TEMP:  67; 6HR MAX TEMP:  80;

STUTTGART      CLEAR     70  66  87 CALM      29.93S
6HR MIN TEMP:  70; 6HR MAX TEMP:  84;

MONTICELLO     CLEAR     69  66  90 CALM      29.93R
6HR MIN TEMP:  69; 6HR MAX TEMP:  81;


$$






USA.gov is the U.S. government's official web portal to all federal, state and local government web resources and services.